Left ArrowRight Arrow

Hourly Observations for June 18, 2024

Temp ( °F °C ) Dew Point ( °F °C ) Humidity (%) Winds ( mph kmh ) Pressure ( in mb ) Visibility ( mi km ) Precip ( " mm )
12:15 am 00:15 Mostly Cloudy 79 26.3 72 22.4 79 79 SW 6 9 30.03 1017 10 16 0.00 0.00
12:35 am 00:35 Mostly Cloudy 81 27.2 72 22.2 74 74 SSW 6 9 30.03 1017 10 16 0.00 0.00
12:55 am 00:55 Mostly Cloudy 81 27.2 72 22.2 74 74 SSW 8 13 30.04 1017 10 16 0.00 0.00
1:15 am 01:15 Mostly Cloudy 81 27 72 22 74 74 SSW 9 15 30.04 1017 10 16 0.00 0.00
1:35 am 01:35 Partly Cloudy 80 26.7 69 20.7 70 70 SSW 12 19 30.05 1018 10 16 0.00 0.00
1:55 am 01:55 Clear 79 25.9 69 20.3 71 71 SW 10 17 30.04 1017 10 16 0.00 0.00
2:15 am 02:15 Mostly Clear 77 25.2 69 20.3 74 74 SSW 5 7 30.05 1018 10 16 0.00 0.00
2:35 am 02:35 Partly Cloudy 77 24.8 69 20.6 78 78 SW 5 7 30.05 1018 10 16 0.00 0.00
2:55 am 02:55 Mostly Cloudy 76 24.5 69 20.5 78 78 W 6 9 30.05 1018 10 16 0.00 0.00
3:15 am 03:15 Mostly Cloudy 75 24.1 69 20.8 82 82 E 5 7 30.06 1018 10 16 0.00 0.00
3:35 am 03:35 Partly Cloudy 74 23.4 70 21.1 87 87 ESE 5 7 30.05 1018 10 16 0.00 0.00
3:55 am 03:55 Mostly Cloudy 75 23.8 70 21.3 86 86 ESE 3 6 30.06 1018 10 16 0.00 0.00
4:15 am 04:15 Mostly Cloudy 76 24.4 70 21.3 83 83 Calm 30.05 1018 10 16 0.00 0.00
4:35 am 04:35 Mostly Cloudy 75 24.1 71 21.5 85 85 SSE 3 6 30.06 1018 10 16 0.00 0.00
4:55 am 04:55 Partly Cloudy 75 23.9 70 21.3 85 85 SSE 3 6 30.06 1018 10 16 0.00 0.00
5:15 am 05:15 Mostly Clear 76 24.2 70 20.9 82 82 SSE 6 9 30.06 1018 10 16 0.00 0.00
5:35 am 05:35 Partly Cloudy 74 23.6 70 21 85 85 SSE 5 7 30.06 1018 10 16 0.00 0.00
5:55 am 05:55 Clear 74 23.6 68 20.2 81 81 S 7 11 30.07 1018 10 16 0.00 0.00
6:15 am 06:15 Mostly Sunny 74 23.5 68 19.8 80 80 S 6 9 30.08 1019 10 16 0.00 0.00
6:35 am 06:35 Mostly Sunny 74 23.3 67 19.6 80 80 S 5 7 30.09 1019 10 16 0.00 0.00
6:55 am 06:55 Sunny 74 23.1 68 19.9 82 82 SSE 3 6 30.09 1019 9 14 0.00 0.00
7:15 am 07:15 Sunny 74 23.2 68 19.8 81 81 SSE 5 7 30.09 1019 9 14 0.00 0.00
7:35 am 07:35 Partly Cloudy 74 23.3 68 19.9 81 81 SSE 5 7 30.10 1019 10 16 0.00 0.00
7:55 am 07:55 Mostly Sunny 74 23.5 68 19.8 80 80 SSE 6 9 30.10 1019 9 14 0.00 0.00
8:15 am 08:15 Mostly Sunny 75 24 69 20.3 80 80 S 6 9 30.11 1019 9 14 0.00 0.00
8:35 am 08:35 Mostly Cloudy 76 24.6 69 20.8 79 79 S 9 15 30.11 1020 9 14 0.00 0.00
8:55 am 08:55 Mostly Cloudy 77 25.1 70 21 78 78 SSW 12 19 30.13 1020 9 14 0.00 0.00
9:15 am 09:15 Partly Cloudy 76 24.7 69 20.7 78 78 SW 15 24 30.14 1021 9 14 0.00 0.00
9:35 am 09:35 Partly Cloudy 75 23.7 69 20.6 83 83 WSW 10 17 30.14 1021 9 14 0.00 0.00
9:55 am 09:55 Partly Cloudy 74 23.5 70 21 86 86 SW 9 15 30.14 1021 10 16 0.00 0.00
10:15 am 10:15 Partly Cloudy 76 24.2 71 21.4 84 84 SSW 7 11 30.13 1020 9 14 0.01 0.13
10:35 am 10:35 Partly Cloudy 77 24.9 72 22 84 84 SSW 7 11 30.12 1020 9 14 0.01 0.13
10:55 am 10:55 Mostly Cloudy 77 25.1 71 21.8 82 82 S 7 11 30.12 1020 9 14 0.00 0.00
11:15 am 11:15 Cloudy 78 25.7 71 21.9 80 80 S 7 11 30.12 1020 10 16 0.00 0.00
11:35 am 11:35 Mostly Cloudy 78 25.8 71 21.8 79 79 S 9 15 30.12 1020 9 14 0.00 0.00
11:55 am 11:55 Partly Cloudy 79 26.1 71 21.7 77 77 S 8 13 30.12 1020 9 14 0.00 0.00
12:15 pm 12:15 Partly Cloudy 79 26.3 71 21.6 75 75 S 9 15 30.13 1020 9 14 0.00 0.00
12:35 pm 12:35 Mostly Cloudy 80 26.6 72 22 76 76 S 6 9 30.13 1020 10 16 0.00 0.00
12:55 pm 12:55 Mostly Cloudy 81 27 71 21.9 74 74 S 7 11 30.13 1020 10 16 0.00 0.00
1:15 pm 13:15 Partly Cloudy 81 27.2 72 22 73 73 S 7 11 30.13 1020 10 16 0.00 0.00
1:35 pm 13:35 Mostly Sunny 81 27.3 71 21.6 71 71 S 9 15 30.13 1020 9 14 0.00 0.00
1:55 pm 13:55 Mostly Sunny 81 27.4 72 22.3 74 74 S 7 11 30.13 1020 10 16 0.00 0.00
2:15 pm 14:15 Partly Cloudy 82 27.8 73 22.5 73 73 S 6 9 30.12 1020 10 16 0.00 0.00
2:35 pm 14:35 Mostly Cloudy 83 28.1 73 22.5 72 72 S 12 19 30.11 1020 10 16 0.00 0.00
2:55 pm 14:55 Partly Cloudy 83 28.1 73 22.7 73 73 S 9 15 30.12 1020 10 16 0.00 0.00
3:15 pm 15:15 Partly Cloudy 83 28.1 72 22.4 71 71 SSW 12 19 30.11 1020 8 13 0.00 0.00
3:35 pm 15:35 Partly Cloudy 82 27.8 72 22.3 72 72 S 6 9 30.11 1020 9 14 0.00 0.00
3:55 pm 15:55 Mostly Sunny 82 27.8 71 21.8 70 70 S 8 13 30.12 1020 10 16 0.00 0.00
4:15 pm 16:15 Partly Cloudy 83 28.2 72 22 69 69 S 7 11 30.12 1020 10 16 0.00 0.00
4:35 pm 16:35 Mostly Cloudy 83 28.2 70 21.2 66 66 S 8 13 30.11 1020 10 16 0.00 0.00
4:55 pm 16:55 Partly Cloudy 83 28.1 71 21.5 67 67 S 7 11 30.11 1020 9 14 0.00 0.00
5:15 pm 17:15 Mostly Cloudy 83 28.6 71 21.5 66 66 S 8 13 30.10 1019 10 16 0.00 0.00
5:35 pm 17:35 Cloudy 84 29 71 21.5 64 64 SSW 8 13 30.10 1019 10 16 0.00 0.00
5:55 pm 17:55 Mostly Cloudy 84 29.1 71 21.5 64 64 S 9 15 30.09 1019 10 16 0.00 0.00
6:15 pm 18:15 Partly Cloudy 85 29.2 71 21.4 63 63 S 8 13 30.08 1019 10 16 0.00 0.00
6:35 pm 18:35 Partly Cloudy 85 29.5 71 21.8 63 63 S 9 15 30.08 1019 10 16 0.00 0.00
6:55 pm 18:55 Mostly Cloudy 85 29.2 72 22 65 65 S 8 13 30.07 1018 9 14 0.00 0.00
7:15 pm 19:15 Mostly Cloudy 84 29 71 21.9 66 66 S 9 15 30.07 1018 9 14 0.00 0.00
7:35 pm 19:35 Cloudy 84 28.7 71 21.7 66 66 S 9 15 30.07 1018 9 14 0.00 0.00
7:55 pm 19:55 Cloudy 83 28.3 71 21.8 68 68 S 7 11 30.07 1018 9 14 0.00 0.00
8:15 pm 20:15 Cloudy 82 27.9 72 22 70 70 S 7 11 30.08 1019 9 14 0.00 0.00
8:35 pm 20:35 Mostly Cloudy 81 27.3 72 22.3 74 74 S 5 7 30.09 1019 9 14 0.00 0.00
8:55 pm 20:55 Mostly Sunny 81 27 72 22.3 76 76 S 3 6 30.09 1019 9 14 0.00 0.00
9:15 pm 21:15 Mostly Cloudy 81 27 72 22.2 75 75 Calm 30.09 1019 10 16 0.00 0.00
9:35 pm 21:35 Cloudy with Light Rain 78 25.7 73 22.7 84 84 Calm 30.10 1019 8 13 0.01 0.13
9:55 pm 21:55 Mostly Cloudy with Light Rain 78 25.8 73 22.6 83 83 Calm 30.11 1020 7 11 0.01 0.13
10:15 pm 22:15 Mostly Cloudy 76 24.7 73 22.9 90 90 Calm 30.11 1020 9 14 0.01 0.13
10:35 pm 22:35 Partly Cloudy 77 24.9 73 22.6 87 87 Calm 30.12 1020 10 16 0.01 0.13
10:55 pm 22:55 Mostly Clear 76 24.5 73 22.8 90 90 Calm 30.12 1020 10 16 0.00 0.00
11:15 pm 23:15 Clear 75 23.9 73 22.7 93 93 ESE 3 6 30.13 1020 10 16 0.00 0.00
11:35 pm 23:35 Mostly Clear 75 23.8 73 22.7 94 94 E 3 6 30.13 1020 10 16 0.00 0.00
11:55 pm 23:55 Partly Cloudy 76 24.2 73 22.6 91 91 ESE 5 7 30.14 1020 10 16 0.00 0.00

Powered by Vaisala Xweather